TimeCDT,TemperatureF,Dew PointF,Humidity,Sea Level PressureIn,VisibilityMPH,Wind Direction,Wind SpeedMPH,Gust SpeedMPH,PrecipitationIn,Events,Conditions,WindDirDegrees,DateUTC
12:15 AM,73.4,68.0,83,29.97,10.0,WNW,3.5,-,N/A,,Clear,300,2013-07-10 05:15:00
12:35 AM,71.6,68.0,88,29.97,10.0,NW,4.6,-,N/A,,Clear,320,2013-07-10 05:35:00
12:55 AM,73.4,68.0,83,29.98,10.0,NNW,9.2,-,N/A,,Clear,330,2013-07-10 05:55:00
1:15 AM,73.4,66.2,78,29.98,10.0,NNW,9.2,-,N/A,,Clear,340,2013-07-10 06:15:00
1:35 AM,71.6,66.2,83,29.98,10.0,North,9.2,-,N/A,,Clear,350,2013-07-10 06:35:00
1:55 AM,71.6,68.0,88,29.98,10.0,North,9.2,-,N/A,,Clear,350,2013-07-10 06:55:00
2:15 AM,71.6,66.2,83,29.98,10.0,North,13.8,-,N/A,,Clear,350,2013-07-10 07:15:00
2:55 AM,69.8,64.4,83,30.00,10.0,North,12.7,-,N/A,,Clear,350,2013-07-10 07:55:00
3:15 AM,68.0,62.6,83,30.01,10.0,North,15.0,21.9,N/A,,Clear,350,2013-07-10 08:15:00
3:35 AM,68.0,62.6,83,30.02,10.0,North,11.5,18.4,N/A,,Clear,350,2013-07-10 08:35:00
3:55 AM,66.2,62.6,88,30.03,10.0,North,10.4,18.4,N/A,,Clear,350,2013-07-10 08:55:00
4:15 AM,66.2,60.8,83,30.03,10.0,North,11.5,-,N/A,,Clear,350,2013-07-10 09:15:00
4:35 AM,64.4,60.8,88,30.04,10.0,North,9.2,-,N/A,,Clear,350,2013-07-10 09:35:00
4:55 AM,64.4,60.8,88,30.05,10.0,North,10.4,-,N/A,,Clear,350,2013-07-10 09:55:00
5:15 AM,64.4,60.8,88,30.05,10.0,North,9.2,-,N/A,,Clear,350,2013-07-10 10:15:00
5:35 AM,64.4,60.8,88,30.05,9.0,North,9.2,-,N/A,,Clear,350,2013-07-10 10:35:00
5:55 AM,64.4,59.0,83,30.06,9.0,North,10.4,16.1,N/A,,Clear,350,2013-07-10 10:55:00
6:15 AM,62.6,59.0,88,30.05,9.0,North,10.4,-,N/A,,Clear,350,2013-07-10 11:15:00
6:35 AM,64.4,59.0,83,30.06,8.0,North,11.5,17.3,N/A,,Clear,350,2013-07-10 11:35:00
6:55 AM,64.4,59.0,83,30.06,9.0,North,10.4,16.1,N/A,,Clear,360,2013-07-10 11:55:00
7:15 AM,64.4,59.0,83,30.07,9.0,North,12.7,21.9,N/A,,Clear,10,2013-07-10 12:15:00
7:35 AM,64.4,57.2,77,30.07,8.0,North,12.7,20.7,N/A,,Clear,360,2013-07-10 12:35:00
7:55 AM,66.2,57.2,73,30.08,9.0,North,12.7,18.4,N/A,,Clear,360,2013-07-10 12:55:00
8:15 AM,66.2,57.2,73,30.08,9.0,North,10.4,18.4,N/A,,Clear,10,2013-07-10 13:15:00
8:35 AM,68.0,57.2,68,30.08,8.0,North,10.4,18.4,N/A,,Clear,350,2013-07-10 13:35:00
8:55 AM,68.0,55.4,64,30.09,9.0,NNE,12.7,-,N/A,,Clear,20,2013-07-10 13:55:00
9:15 AM,69.8,55.4,60,30.09,9.0,NNE,11.5,-,N/A,,Clear,20,2013-07-10 14:15:00
9:35 AM,69.8,55.4,60,30.09,9.0,NNE,16.1,-,N/A,,Clear,20,2013-07-10 14:35:00
9:55 AM,69.8,53.6,56,30.09,9.0,North,15.0,-,N/A,,Clear,360,2013-07-10 14:55:00
10:15 AM,71.6,53.6,53,30.08,9.0,North,15.0,21.9,N/A,,Clear,360,2013-07-10 15:15:00
10:35 AM,71.6,51.8,50,30.08,9.0,North,16.1,23.0,N/A,,Clear,360,2013-07-10 15:35:00
10:55 AM,71.6,51.8,50,30.08,9.0,NNE,16.1,21.9,N/A,,Clear,20,2013-07-10 15:55:00
11:15 AM,73.4,51.8,47,30.08,9.0,North,13.8,21.9,N/A,,Clear,10,2013-07-10 16:15:00
11:35 AM,73.4,51.8,47,30.08,9.0,NNE,16.1,-,N/A,,Clear,30,2013-07-10 16:35:00
11:55 AM,73.4,53.6,50,30.09,9.0,North,11.5,21.9,N/A,,Clear,10,2013-07-10 16:55:00
12:15 PM,75.2,51.8,44,30.09,9.0,North,11.5,20.7,N/A,,Clear,10,2013-07-10 17:15:00
12:35 PM,75.2,53.6,47,30.08,9.0,NNE,12.7,20.7,N/A,,Clear,30,2013-07-10 17:35:00
12:55 PM,75.2,51.8,44,30.08,9.0,North,10.4,18.4,N/A,,Clear,10,2013-07-10 17:55:00
1:15 PM,77.0,51.8,41,30.08,9.0,NNE,11.5,18.4,N/A,,Clear,20,2013-07-10 18:15:00
1:35 PM,77.0,53.6,44,30.09,10.0,NNE,9.2,16.1,N/A,,Clear,30,2013-07-10 18:35:00
1:55 PM,77.0,51.8,41,30.09,9.0,North,9.2,17.3,N/A,,Clear,10,2013-07-10 18:55:00
2:15 PM,77.0,51.8,41,30.09,9.0,North,11.5,-,N/A,,Clear,10,2013-07-10 19:15:00
2:35 PM,78.8,53.6,42,30.09,10.0,NNE,6.9,15.0,N/A,,Clear,20,2013-07-10 19:35:00
2:55 PM,77.0,51.8,41,30.09,9.0,North,8.1,-,N/A,,Clear,350,2013-07-10 19:55:00
3:15 PM,78.8,53.6,42,30.08,9.0,Variable,6.9,13.8,N/A,,Clear,0,2013-07-10 20:15:00
3:35 PM,78.8,51.8,39,30.08,9.0,NW,10.4,-,N/A,,Clear,310,2013-07-10 20:35:00
3:55 PM,78.8,53.6,42,30.08,10.0,Variable,4.6,13.8,N/A,,Clear,0,2013-07-10 20:55:00
4:15 PM,80.6,51.8,37,30.07,9.0,North,9.2,-,N/A,,Clear,360,2013-07-10 21:15:00
4:35 PM,78.8,53.6,42,30.06,9.0,Variable,5.8,13.8,N/A,,Clear,0,2013-07-10 21:35:00
4:55 PM,78.8,51.8,39,30.06,9.0,Variable,5.8,12.7,N/A,,Clear,0,2013-07-10 21:55:00
5:15 PM,78.8,51.8,39,30.06,9.0,NW,6.9,13.8,N/A,,Clear,320,2013-07-10 22:15:00
5:35 PM,78.8,51.8,39,30.05,10.0,North,6.9,12.7,N/A,,Clear,10,2013-07-10 22:35:00
5:55 PM,78.8,51.8,39,30.05,10.0,WNW,6.9,-,N/A,,Clear,300,2013-07-10 22:55:00
6:15 PM,78.8,51.8,39,30.04,9.0,North,5.8,-,N/A,,Clear,350,2013-07-10 23:15:00
6:35 PM,78.8,53.6,42,30.04,9.0,North,8.1,-,N/A,,Clear,350,2013-07-10 23:35:00
6:55 PM,78.8,53.6,42,30.04,9.0,North,5.8,-,N/A,,Clear,10,2013-07-10 23:55:00
7:15 PM,78.8,51.8,39,30.03,9.0,NNW,6.9,-,N/A,,Clear,340,2013-07-11 00:15:00
7:35 PM,77.0,53.6,44,30.03,9.0,North,5.8,-,N/A,,Clear,360,2013-07-11 00:35:00
7:55 PM,77.0,53.6,44,30.03,9.0,North,4.6,-,N/A,,Clear,360,2013-07-11 00:55:00
8:15 PM,75.2,55.4,50,30.03,9.0,North,4.6,-,N/A,,Clear,10,2013-07-11 01:15:00
8:35 PM,73.4,57.2,57,30.03,8.0,NNE,5.8,-,N/A,,Clear,20,2013-07-11 01:35:00
8:55 PM,71.6,57.2,60,30.03,9.0,NE,5.8,-,N/A,,Clear,50,2013-07-11 01:55:00
9:15 PM,71.6,57.2,60,30.04,8.0,NE,5.8,-,N/A,,Clear,40,2013-07-11 02:15:00
9:35 PM,69.8,57.2,64,30.04,10.0,NE,5.8,-,N/A,,Clear,40,2013-07-11 02:35:00
9:55 PM,68.0,57.2,68,30.05,10.0,NE,3.5,-,N/A,,Clear,40,2013-07-11 02:55:00
10:15 PM,69.8,57.2,64,30.06,10.0,Calm,Calm,-,N/A,,Clear,0,2013-07-11 03:15:00
10:35 PM,68.0,57.2,68,30.06,10.0,Calm,Calm,-,N/A,,Clear,0,2013-07-11 03:35:00
10:55 PM,68.0,57.2,68,30.07,10.0,Calm,Calm,-,N/A,,Clear,0,2013-07-11 03:55:00
11:15 PM,68.0,57.2,68,30.08,10.0,Calm,Calm,-,N/A,,Clear,0,2013-07-11 04:15:00
11:35 PM,66.2,57.2,73,30.08,10.0,Calm,Calm,-,N/A,,Clear,0,2013-07-11 04:35:00
11:55 PM,66.2,57.2,73,30.09,10.0,Calm,Calm,-,N/A,,Clear,0,2013-07-11 04:55:00